THOR ABLESTAR DEB, 3592

Orbit data source: Space-Track

THOR ABLESTAR DEB, 3592 is space debris in LEO originally from a launch on Thu, 24 Jun 1965 UTC launched from the Air Force Western Test Range (AFWTR). Debris objects in space refer to the collection of defunct objects orbiting the Earth. Examples of debris include non-operational satellites, rocket bodies, and fragments generated from explosions, collisions, or faulty payload assembly.

Loading next visibility...
Identifier
3592, 1965-048F
Orbit
LEO
Last TLE update
1 day ago
Origin
Manufacturer
Unknown
Mission
Spacecraft
Bus & Motor
Unknown
Mass
Unknown
Launch date (UTC)
1965-06-24 (60 years ago)
Launch vehicle
Unknown
Launch site
Air Force Western Test Range (AFWTR)
Object type
Payload
Rocket body
Debris
Shape & HBR
Unknown
Radar Cross Section
Small (<0.1 m²)

Expand to show TLE details & history

TLE from 1 day ago
0 THOR ABLESTAR DEB
1 03592U 65048F   25139.39791139  .00000291  00000-0  35737-3 0  9994
2 03592  89.8818 292.6669 0062271  45.8778 343.0916 13.62479746966343
Epoch: 2025-05-19T09:32Z
TLE epoch observation values (Epoch: 2025-05-19T09:32:59.544Z)
Latitude
28.80367°
Longitude
-87.82765°
Altitude
986.228 km
Speed
7.383 km/s
True Right ascension
19h 30m 55s
True Declination
28° 39' 48"
Sunlit
Object was in daylight at epoch
Visualization orbit readout
Latitude
81.14647°
Longitude
91.3374°
Altitude
1,014.752 km
Speed
7.364 km/s
Apparent Right ascension
11h 55m 24s
Apparent Declination
31° 33' 05"
Sunlit
Object is in daylight
Visualization observer readout
Local Sidereal Time
00:44:54
Azimuth
11.049° NNE
Elevation
-17.617°
Doppler factor
1
Orbital elements
Apogee altitude
1,069.817 km
Perigee altitude
977.633 km
Semi-major axis
7,401.862 km
Eccentricity
0.00623
Inclination
89.8818°
RAAN
292.6669°
Arg. of periapsis
45.8778°
True anomaly
Unknown
Mean anomaly
343.0916°
Eccentric anomaly
Unknown
Mean motion
3.40825 °/min
Orbital period
105.63 mins
BSTAR
0.00035737
Loading maneuver chart data...
Loading SW <> Apogee altitude chart data...

THOR ABLESTAR DEB Visibility forecast

Observer location: undefined°, undefined°

Span
Click to sort rows by Start time (UTC) header in descending order
Start Az.
Max El. time (UTC)
Max El. Az.
Max El.
End time (UTC)
End Az.
9 mins2025-05-20 21:16:09.754Z35.332° NE2025-05-20 21:20:09.754Z79.437° E21.807°2025-05-20 21:25:09.754Z131.59° SE
11 mins2025-05-20 23:01:09.754Z348.341° N2025-05-20 23:06:09.754Z275.18° WNW38.408°2025-05-20 23:12:09.754Z204.089° SW
7 mins2025-05-21 09:09:09.754Z108.912° ESE2025-05-21 09:12:09.754Z75.52° E18.618°2025-05-21 09:16:09.754Z32.598° NE
10 mins2025-05-21 10:53:09.754Z197.196° SSW2025-05-21 10:57:09.754Z265.769° W40.639°2025-05-21 11:03:09.754Z349.867° N
|